Location: Puketoi
(40.5833°S, 176.0167°E)
Time: 12:14:29
(UTC+00:00)

Meteor 1-24 Rocket - Pass Details

Date: 08 February 2023
Orbit: 790 x 927 km, 81.3° (Epoch: 31 March)

Event Time Altitude Azimuth Distance (km) Brightness Sun altitude
Exits shadow 16:07:21 - 353° (N) 2,587 5.8 -15.1°
Reaches altitude 10° 16:07:34 10° 353° (N) 2,505 5.8 -15.1°
Maximum altitude 16:13:18 88° 80° (E) 903 3.8 -14.2°
Drops below altitude 10° 16:19:19 10° 170° (S) 2,624 6.9 -13.2°
Sets 16:21:51 0° 170° (S) 3,587 7.7 -12.8°
